Location: Unspecified
(48.7670°N, 0.0000°E)
Time: 02:59:52
(UTC+00:00)

Altair - Pass Details

Date: 01 July 2019
Orbit: 1501 x 1683 km, 47.2° (Epoch: 12 October)

Event Time Altitude Azimuth Distance (km) Brightness Sun altitude
Rises 18:47:03 0° 250° (WSW) 4,668 10.8 10.5°
Reaches altitude 10° 18:50:03 10° 249° (WSW) 3,705 10.3 10.0°
Maximum altitude 18:59:24 76° 166° (SSE) 1,618 7.7 8.6°
Drops below altitude 10° 19:09:10 10° 83° (E) 3,852 9.1 7.2°
Sets 19:12:20 0° 82° (E) 4,861 9.6 6.7°
